Home > Weather > Bruchsal > Past weeks

Flag for Germany Past Weather in Bruchsal, Baden-Württemberg, Germany — Yesterday and Last 2 Weeks

Now
75 °F

Sunny.


Feels Like: 77 °F
Forecast: 61 / 87 °F
Wind: 1 mph from North

Location: Mannheim City

Current Time: Aug 24, 2016 at 10:39:37 AM

Latest Report: Aug 24, 2016 at 9:50 AM


Visibility: 10 mi

Pressure: 30.24 "Hg

Humidity: 61%

Dew Point: 61 °F

Location of BruchsalLocation

Past Weather in Bruchsal — Graph

°F

Bruchsal Temperature Yesterday

Maximum temperature yesterday: 84 °F (at 5:20 PM)
Minimum temperature yesterday: 55 °F (at 5:20 AM)
Average temperature yesterday: 73 °F

High & Low Weather Summary for the Past Weeks

 TemperatureHumidityPressure
High84 °F (Aug 23, 5:20 PM)100% (Aug 11, 5:20 AM)30.39 "Hg (Aug 11, 5:20 AM)
Low45 °F (Aug 11, 6:20 AM)30% (Aug 17, 4:50 PM)29.80 "Hg (Aug 18, 4:20 PM)
Average69 °F65%30.11 "Hg
* Reported Aug 9 9:20 AM — Aug 24 9:20 AM, Bruchsal, Weather by CustomWeather, © 2016

Note: Actual official high and low records may vary slightly from our data, if they occured in-between our weather recording intervals... More about our weather records

Advertising

Bruchsal Weather History for the Previous 24 Hours

Scroll right to see more
 ConditionsComfort  
Time TempWeatherWind HumidityBarometerVisibility
9:20 AM
Wed, Aug 24
72 °FSunny.2 mph65%30.24 "Hg10 mi
8:50 AM68 °FSunny.2 mph73%30.24 "Hg10 mi
8:20 AM66 °FSunny.2 mph83%30.24 "Hg10 mi
7:50 AM64 °FSunny.2 mph83%30.24 "Hg10 mi
7:20 AM63 °FClear.1 mph100%30.24 "Hg10 mi
6:50 AM59 °FClear.2 mph100%30.21 "Hg10 mi
6:20 AM59 °FClear.2 mph100%30.21 "Hg10 mi
5:50 AM59 °FClear.1 mph100%30.21 "Hg10 mi
5:20 AM59 °FClear.1 mph100%30.21 "Hg10 mi
8:50 PM
Tue, Aug 23
75 °FSunny.3 mph57%30.24 "Hg10 mi
8:20 PM79 °FSunny.3 mph51%30.24 "Hg10 mi
7:50 PM81 °FSunny.3 mph48%30.24 "Hg10 mi
7:20 PM82 °FSunny.3 mph42%30.24 "Hg10 mi
6:50 PM82 °FPassing clouds.5 mph42%30.24 "HgN/A
6:20 PM82 °FPassing clouds.5 mph42%30.27 "HgN/A
5:50 PM84 °FSunny.3 mph40%30.27 "Hg10 mi
5:20 PM84 °FSunny.3 mph40%30.27 "Hg10 mi
4:50 PM82 °FSunny.3 mph42%30.27 "Hg10 mi
4:20 PM82 °FSunny.3 mph42%30.27 "Hg10 mi
3:50 PM81 °FSunny.3 mph45%30.27 "Hg10 mi
3:20 PM82 °FSunny.3 mph45%30.30 "Hg10 mi
2:50 PM79 °FSunny.3 mph45%30.30 "Hg10 mi
2:20 PM79 °FSunny.3 mph48%30.30 "Hg10 mi
1:50 PM79 °FSunny.2 mph51%30.33 "Hg10 mi
1:20 PM79 °FSunny.5 mph48%30.33 "Hg10 mi
12:50 PM77 °FSunny.3 mph47%30.33 "Hg10 mi
12:20 PM77 °FSunny.5 mph51%30.36 "Hg10 mi
11:50 AM75 °FPassing clouds.6 mph54%30.36 "HgN/A
11:20 AM73 °FSunny.3 mph57%30.36 "Hg10 mi
10:50 AM73 °FSunny.3 mph61%30.36 "Hg10 mi
10:20 AM70 °FSunny.2 mph64%30.39 "Hg10 mi
Weather by CustomWeather, © 2016

See weather overviewHow to use our weather pages